Time,TemperatureF,DewpointF,PressureIn,WindDirection,WindDirectionDegrees,WindSpeedMPH,WindSpeedGustMPH,Humidity,HourlyPrecipIn,Conditions,Clouds,dailyrainin,SoftwareType,DateUTC
2013-02-01 00:01:00,34.0,22.0,-100.00,ESE,120,3.0,5.0,61,-99.99,,,-99.99,,2013-02-01 08:01:00,
2013-02-01 00:11:00,34.0,27.0,-100.00,SE,131,3.0,4.0,74,-99.99,,,-99.99,,2013-02-01 08:11:00,
2013-02-01 00:21:00,34.0,24.0,-100.00,SE,143,2.0,2.0,66,-99.99,,,-99.99,,2013-02-01 08:21:00,
2013-02-01 00:31:00,34.0,20.0,-100.00,SE,126,2.0,3.0,56,-99.99,,,-99.99,,2013-02-01 08:31:00,
2013-02-01 00:42:00,33.0,18.0,-100.00,SE,130,3.0,4.0,53,-99.99,,,-99.99,,2013-02-01 08:42:00,
2013-02-01 00:52:00,33.0,18.0,-100.00,SE,137,2.0,4.0,53,-99.99,,,-99.99,,2013-02-01 08:52:00,
2013-02-01 01:01:00,33.0,17.0,-100.00,SE,128,2.0,4.0,52,-99.99,,,-99.99,,2013-02-01 09:01:00,
2013-02-01 01:11:00,32.0,18.0,-100.00,SE,128,1.0,3.0,55,-99.99,,,-99.99,,2013-02-01 09:11:00,
2013-02-01 01:21:00,32.0,18.0,-100.00,ESE,117,2.0,3.0,56,-99.99,,,-99.99,,2013-02-01 09:21:00,
2013-02-01 01:31:00,32.0,17.0,-100.00,ESE,120,3.0,4.0,52,-99.99,,,-99.99,,2013-02-01 09:31:00,
2013-02-01 01:41:00,32.0,16.0,-100.00,SE,138,3.0,4.0,51,-99.99,,,-99.99,,2013-02-01 09:41:00,
2013-02-01 01:51:00,32.0,16.0,-100.00,ESE,110,1.0,2.0,52,-99.99,,,-99.99,,2013-02-01 09:51:00,
2013-02-01 02:01:00,32.0,16.0,-100.00,ESE,109,1.0,2.0,52,-99.99,,,-99.99,,2013-02-01 10:01:00,
2013-02-01 02:11:00,32.0,16.0,-100.00,ESE,109,1.0,2.0,52,-99.99,,,-99.99,,2013-02-01 10:11:00,
2013-02-01 02:21:00,32.0,14.0,-100.00,SE,133,0.0,0.0,47,-99.99,,,-99.99,,2013-02-01 10:21:00,
2013-02-01 02:31:00,32.0,19.0,-100.00,SE,128,0.0,0.0,59,-99.99,,,-99.99,,2013-02-01 10:31:00,
2013-02-01 02:42:00,32.0,14.0,-100.00,ESE,121,0.0,0.0,48,-99.99,,,-99.99,,2013-02-01 10:42:00,
2013-02-01 02:52:00,31.0,13.0,-100.00,ESE,112,0.0,0.0,47,-99.99,,,-99.99,,2013-02-01 10:52:00,
2013-02-01 03:01:00,31.0,18.0,-100.00,ESE,112,0.0,0.0,58,-99.99,,,-99.99,,2013-02-01 11:01:00,
2013-02-01 03:11:00,32.0,20.0,-100.00,ESE,116,0.0,0.0,61,-99.99,,,-99.99,,2013-02-01 11:11:00,
2013-02-01 03:21:00,32.0,20.0,-100.00,SE,127,0.0,0.0,62,-99.99,,,-99.99,,2013-02-01 11:21:00,
2013-02-01 03:31:00,32.0,20.0,-100.00,SSE,148,0.0,0.0,62,-99.99,,,-99.99,,2013-02-01 11:31:00,
2013-02-01 03:41:00,31.0,19.0,-100.00,SE,134,0.0,0.0,61,-99.99,,,-99.99,,2013-02-01 11:41:00,
2013-02-01 03:53:00,31.0,19.0,-100.00,SE,128,0.0,0.0,60,-99.99,,,-99.99,,2013-02-01 11:53:00,
2013-02-01 04:02:00,31.0,19.0,-100.00,SE,124,0.0,0.0,61,-99.99,,,-99.99,,2013-02-01 12:02:00,
2013-02-01 04:12:00,31.0,23.0,-100.00,SE,134,0.0,0.0,72,-99.99,,,-99.99,,2013-02-01 12:12:00,
2013-02-01 04:22:00,31.0,26.0,-100.00,SE,134,0.0,0.0,81,-99.99,,,-99.99,,2013-02-01 12:22:00,
2013-02-01 04:32:00,31.0,26.0,-100.00,SE,131,0.0,0.0,82,-99.99,,,-99.99,,2013-02-01 12:32:00,
2013-02-01 04:42:00,30.0,26.0,-100.00,SE,134,0.0,0.0,83,-99.99,,,-99.99,,2013-02-01 12:42:00,
2013-02-01 04:52:00,31.0,26.0,-100.00,SE,136,0.0,0.0,84,-99.99,,,-99.99,,2013-02-01 12:52:00,
2013-02-01 05:02:00,30.0,24.0,-100.00,ESE,120,0.0,0.0,78,-99.99,,,-99.99,,2013-02-01 13:02:00,
2013-02-01 05:11:00,30.0,24.0,-100.00,ESE,123,0.0,0.0,77,-99.99,,,-99.99,,2013-02-01 13:11:00,
2013-02-01 05:21:00,30.0,21.0,-100.00,SE,130,0.0,0.0,68,-99.99,,,-99.99,,2013-02-01 13:21:00,
2013-02-01 05:32:00,30.0,19.0,-100.00,SE,128,0.0,0.0,62,-99.99,,,-99.99,,2013-02-01 13:32:00,
2013-02-01 05:42:00,30.0,18.0,-100.00,ESE,117,0.0,0.0,60,-99.99,,,-99.99,,2013-02-01 13:42:00,
2013-02-01 05:52:00,30.0,14.0,-100.00,ESE,109,2.0,3.0,51,-99.99,,,-99.99,,2013-02-01 13:52:00,
2013-02-01 06:03:00,30.0,20.0,-100.00,SE,124,3.0,4.0,67,-99.99,,,-99.99,,2013-02-01 14:03:00,
2013-02-01 06:11:00,30.0,21.0,-100.00,SE,134,3.0,4.0,70,-99.99,,,-99.99,,2013-02-01 14:11:00,
2013-02-01 06:21:00,30.0,20.0,-100.00,SE,133,2.0,3.0,65,-99.99,,,-99.99,,2013-02-01 14:21:00,
2013-02-01 06:32:00,30.0,15.0,-100.00,SE,127,3.0,4.0,53,-99.99,,,-99.99,,2013-02-01 14:32:00,
2013-02-01 06:42:00,30.0,15.0,-100.00,ESE,120,3.0,4.0,52,-99.99,,,-99.99,,2013-02-01 14:42:00,
2013-02-01 06:52:00,30.0,15.0,-100.00,SE,140,2.0,3.0,54,-99.99,,,-99.99,,2013-02-01 14:52:00,
2013-02-01 07:02:00,30.0,15.0,-100.00,ESE,119,2.0,4.0,53,-99.99,,,-99.99,,2013-02-01 15:02:00,
2013-02-01 07:11:00,30.0,18.0,-100.00,SE,137,3.0,3.0,60,-99.99,,,-99.99,,2013-02-01 15:11:00,
2013-02-01 07:21:00,30.0,18.0,-100.00,SE,127,3.0,4.0,60,-99.99,,,-99.99,,2013-02-01 15:21:00,
2013-02-01 07:32:00,29.0,17.0,-100.00,ESE,117,3.0,4.0,60,-99.99,,,-99.99,,2013-02-01 15:32:00,
2013-02-01 07:42:00,30.0,17.0,-100.00,ESE,113,3.0,4.0,59,-99.99,,,-99.99,,2013-02-01 15:42:00,
2013-02-01 07:51:00,30.0,14.0,-100.00,ESE,110,3.0,4.0,52,-99.99,,,-99.99,,2013-02-01 15:51:00,
2013-02-01 08:02:00,30.0,16.0,-100.00,ESE,114,3.0,4.0,57,-99.99,,,-99.99,,2013-02-01 16:02:00,
2013-02-01 08:11:00,30.0,19.0,-100.00,ESE,119,3.0,4.0,64,-99.99,,,-99.99,,2013-02-01 16:11:00,
2013-02-01 08:21:00,30.0,21.0,-100.00,ESE,120,2.0,3.0,68,-99.99,,,-99.99,,2013-02-01 16:21:00,
2013-02-01 08:32:00,30.0,21.0,-100.00,ESE,117,3.0,3.0,67,-99.99,,,-99.99,,2013-02-01 16:32:00,
2013-02-01 08:42:00,30.0,21.0,-100.00,ESE,117,3.0,3.0,67,-99.99,,,-99.99,,2013-02-01 16:42:00,
2013-02-01 08:52:00,30.0,20.0,-100.00,ESE,114,2.0,2.0,65,-99.99,,,-99.99,,2013-02-01 16:52:00,
2013-02-01 09:02:00,30.0,22.0,-100.00,SE,126,2.0,2.0,72,-99.99,,,-99.99,,2013-02-01 17:02:00,
2013-02-01 09:11:00,30.0,23.0,-100.00,SE,130,0.0,0.0,74,-99.99,,,-99.99,,2013-02-01 17:11:00,
2013-02-01 09:22:00,30.0,22.0,-100.00,ESE,112,0.0,0.0,71,-99.99,,,-99.99,,2013-02-01 17:22:00,
2013-02-01 09:32:00,30.0,22.0,-100.00,SE,134,0.0,0.0,71,-99.99,,,-99.99,,2013-02-01 17:32:00,
2013-02-01 09:41:00,31.0,21.0,-100.00,ENE,78,0.0,0.0,67,-99.99,,,-99.99,,2013-02-01 17:41:00,
2013-02-01 09:52:00,31.0,22.0,-100.00,SE,141,0.0,0.0,71,-99.99,,,-99.99,,2013-02-01 17:52:00,
2013-02-01 10:02:00,31.0,23.0,-100.00,ESE,123,0.0,0.0,71,-99.99,,,-99.99,,2013-02-01 18:02:00,
2013-02-01 10:11:00,32.0,24.0,-100.00,WSW,247,0.0,0.0,72,-99.99,,,-99.99,,2013-02-01 18:11:00,
2013-02-01 10:22:00,33.0,24.0,-100.00,SW,232,0.0,0.0,67,-99.99,,,-99.99,,2013-02-01 18:22:00,
2013-02-01 10:31:00,33.0,24.0,-100.00,SW,232,0.0,0.0,67,-99.99,,,-99.99,,2013-02-01 18:31:00,
2013-02-01 10:42:00,33.0,24.0,-100.00,SW,232,0.0,0.0,67,-99.99,,,-99.99,,2013-02-01 18:42:00,
2013-02-01 10:52:00,33.0,24.0,-100.00,SW,232,0.0,0.0,67,-99.99,,,-99.99,,2013-02-01 18:52:00,
2013-02-01 15:21:00,43.0,14.0,-100.00,SSW,212,0.0,0.0,31,-99.99,,,-99.99,,2013-02-01 23:21:00,
2013-02-01 15:31:00,43.0,16.0,-100.00,SW,220,0.0,0.0,33,-99.99,,,-99.99,,2013-02-01 23:31:00,
2013-02-01 15:41:00,44.0,16.0,-100.00,SSW,196,0.0,0.0,32,-99.99,,,-99.99,,2013-02-01 23:41:00,
2013-02-01 15:52:00,44.0,21.0,-100.00,SSE,157,0.0,0.0,40,-99.99,,,-99.99,,2013-02-01 23:52:00,
2013-02-01 16:01:00,43.0,22.0,-100.00,SSW,192,0.0,0.0,43,-99.99,,,-99.99,,2013-02-02 00:01:00,
2013-02-01 16:11:00,43.0,20.0,-100.00,SSW,196,0.0,0.0,40,-99.99,,,-99.99,,2013-02-02 00:11:00,
2013-02-01 16:21:00,43.0,21.0,-100.00,South,191,0.0,0.0,41,-99.99,,,-99.99,,2013-02-02 00:21:00,
2013-02-01 16:32:00,42.0,15.0,-100.00,SW,223,0.0,0.0,32,-99.99,,,-99.99,,2013-02-02 00:32:00,
2013-02-01 16:41:00,42.0,19.0,-100.00,South,175,0.0,0.0,39,-99.99,,,-99.99,,2013-02-02 00:41:00,
2013-02-01 16:52:00,41.0,18.0,-100.00,South,176,0.0,0.0,39,-99.99,,,-99.99,,2013-02-02 00:52:00,
2013-02-01 17:01:00,41.0,18.0,-100.00,South,175,0.0,0.0,39,-99.99,,,-99.99,,2013-02-02 01:01:00,
2013-02-01 17:11:00,41.0,19.0,-100.00,SE,136,0.0,0.0,40,-99.99,,,-99.99,,2013-02-02 01:11:00,
2013-02-01 17:21:00,41.0,20.0,-100.00,ESE,119,0.0,0.0,42,-99.99,,,-99.99,,2013-02-02 01:21:00,
2013-02-01 17:31:00,41.0,20.0,-100.00,ESE,119,0.0,0.0,42,-99.99,,,-99.99,,2013-02-02 01:31:00,
2013-02-01 17:41:00,40.0,15.0,-100.00,SE,124,0.0,0.0,35,-99.99,,,-99.99,,2013-02-02 01:41:00,
2013-02-01 17:52:00,40.0,16.0,-100.00,ESE,113,0.0,0.0,37,-99.99,,,-99.99,,2013-02-02 01:52:00,
2013-02-01 18:01:00,40.0,18.0,-100.00,SE,127,0.0,0.0,41,-99.99,,,-99.99,,2013-02-02 02:01:00,
2013-02-01 18:11:00,40.0,14.0,-100.00,SE,127,0.0,0.0,34,-99.99,,,-99.99,,2013-02-02 02:11:00,
2013-02-01 18:21:00,39.0,14.0,-100.00,SSE,157,0.0,0.0,35,-99.99,,,-99.99,,2013-02-02 02:21:00,
2013-02-01 18:31:00,39.0,13.0,-100.00,SSE,161,0.0,0.0,34,-99.99,,,-99.99,,2013-02-02 02:31:00,
2013-02-01 18:41:00,38.0,12.0,-100.00,SSE,150,0.0,0.0,33,-99.99,,,-99.99,,2013-02-02 02:41:00,
2013-02-01 18:52:00,38.0,10.0,-100.00,SE,133,0.0,0.0,31,-99.99,,,-99.99,,2013-02-02 02:52:00,
2013-02-01 19:02:00,38.0,13.0,-100.00,SE,140,0.0,0.0,35,-99.99,,,-99.99,,2013-02-02 03:02:00,
2013-02-01 19:11:00,38.0,16.0,-100.00,SE,143,0.0,0.0,40,-99.99,,,-99.99,,2013-02-02 03:11:00,
2013-02-01 19:21:00,37.0,16.0,-100.00,SE,131,0.0,0.0,42,-99.99,,,-99.99,,2013-02-02 03:21:00,
2013-02-01 19:32:00,37.0,15.0,-100.00,SSE,161,0.0,0.0,40,-99.99,,,-99.99,,2013-02-02 03:32:00,
2013-02-01 19:42:00,37.0,17.0,-100.00,SE,127,0.0,0.0,44,-99.99,,,-99.99,,2013-02-02 03:42:00,
2013-02-01 19:51:00,37.0,20.0,-100.00,SE,141,0.0,0.0,50,-99.99,,,-99.99,,2013-02-02 03:51:00,
2013-02-01 20:01:00,36.0,28.0,-100.00,ESE,114,0.0,0.0,71,-99.99,,,-99.99,,2013-02-02 04:01:00,
2013-02-01 20:11:00,36.0,27.0,-100.00,ESE,107,0.0,0.0,68,-99.99,,,-99.99,,2013-02-02 04:11:00,
2013-02-01 20:21:00,36.0,26.0,-100.00,SE,127,0.0,0.0,67,-99.99,,,-99.99,,2013-02-02 04:21:00,
2013-02-01 20:32:00,36.0,26.0,-100.00,SE,127,0.0,0.0,67,-99.99,,,-99.99,,2013-02-02 04:32:00,
2013-02-01 20:41:00,36.0,26.0,-100.00,SE,127,0.0,0.0,67,-99.99,,,-99.99,,2013-02-02 04:41:00,
2013-02-01 20:51:00,36.0,26.0,-100.00,SE,127,0.0,0.0,67,-99.99,,,-99.99,,2013-02-02 04:51:00,
2013-02-01 21:03:00,37.0,23.0,-100.00,SE,136,0.0,0.0,57,-99.99,,,-99.99,,2013-02-02 05:03:00,
2013-02-01 21:11:00,36.0,27.0,-100.00,ESE,103,0.0,0.0,70,-99.99,,,-99.99,,2013-02-02 05:11:00,
2013-02-01 21:22:00,36.0,27.0,-100.00,SE,130,0.0,0.0,69,-99.99,,,-99.99,,2013-02-02 05:22:00,
2013-02-01 21:32:00,36.0,21.0,-100.00,SE,124,0.0,0.0,54,-99.99,,,-99.99,,2013-02-02 05:32:00,
2013-02-01 21:41:00,36.0,18.0,-100.00,ESE,106,0.0,0.0,47,-99.99,,,-99.99,,2013-02-02 05:41:00,
2013-02-01 21:52:00,36.0,15.0,-100.00,ESE,104,0.0,0.0,43,-99.99,,,-99.99,,2013-02-02 05:52:00,
2013-02-01 22:02:00,36.0,15.0,-100.00,East,93,0.0,0.0,42,-99.99,,,-99.99,,2013-02-02 06:02:00,
2013-02-01 22:12:00,36.0,17.0,-100.00,SE,128,0.0,0.0,46,-99.99,,,-99.99,,2013-02-02 06:12:00,
2013-02-01 22:21:00,36.0,22.0,-100.00,ESE,123,0.0,0.0,55,-99.99,,,-99.99,,2013-02-02 06:21:00,
2013-02-01 22:31:00,36.0,20.0,-100.00,ESE,123,0.0,0.0,52,-99.99,,,-99.99,,2013-02-02 06:31:00,
2013-02-01 22:41:00,35.0,19.0,-100.00,South,171,0.0,0.0,52,-99.99,,,-99.99,,2013-02-02 06:41:00,
2013-02-01 22:51:00,36.0,23.0,-100.00,SE,131,0.0,0.0,59,-99.99,,,-99.99,,2013-02-02 06:51:00,
2013-02-01 23:02:00,35.0,26.0,-100.00,SE,130,0.0,0.0,69,-99.99,,,-99.99,,2013-02-02 07:02:00,
2013-02-01 23:11:00,35.0,28.0,-100.00,SE,136,0.0,0.0,74,-99.99,,,-99.99,,2013-02-02 07:11:00,
2013-02-01 23:21:00,34.0,28.0,-100.00,SE,133,0.0,0.0,77,-99.99,,,-99.99,,2013-02-02 07:21:00,
2013-02-01 23:31:00,34.0,28.0,-100.00,SE,133,0.0,0.0,78,-99.99,,,-99.99,,2013-02-02 07:31:00,
2013-02-01 23:41:00,34.0,27.0,-100.00,SE,133,0.0,0.0,73,-99.99,,,-99.99,,2013-02-02 07:41:00,
2013-02-01 23:51:00,34.0,23.0,-100.00,ESE,120,0.0,0.0,64,-99.99,,,-99.99,,2013-02-02 07:51:00,